Content
SEND FEEDBACK

Daily
Averages
Monthly
Summary
United States of America

MERIZO, GUAM


Home > North America > United States > Guam
Elevation: 10 feet     Latitude: 13 14N     Longitude: 144 39E

WEATHER
 
SELECT A DAY
Number of Records: 351,895;   Date Range: 1/1/95 - 10/24/14
 
SHARE

PRINT THIS DATA

[ ← Previous Day ]
WEATHER ALMANAC - MARCH 15, 2013
[ Next Day → ]
[ °C ]   °F
Weather ElementAverageHighLow
Temperature79 °F84.2 °F (1:27 pm)74.8 °F (1:55 am)
Dewpoint71.3 °F73.4 °F (5:12 pm)69.3 °F (3:55 am)
Humidity77.5 %89 % (3:03 am)62 % (1:27 pm)
Barometer29.88 in29.94 in (10:55 pm)29.83 in (3:40 pm)
Wind Speed11.4 mph16.1 mph (5:27 pm)
Wind Gust17.3 mph (1:27 pm)
Weather ElementAverage
Visibility10 mi
Wind DirectionNE (47.2 °)

Weather ElementTotal
Precipitation---
Cooling Degree Days14.5 (Base 65)
Growing Degree Days29.5 (Base 50)
Averaged from 65 records on March 15, 2013
WEATHER CONDITIONS BREAKOUT
WIND DIRECTION BREAKOUT
WEATHER BY HOUR - MARCH 15, 2013
[ °C ]   °F
Local TimeTemperatureDewpointHumidityBarometerVisibilityWind DirectionWind SpeedGust SpeedPrecipitationEventsConditions
1:55 AM74.8 °F70.0 °F85 %29.87 in10.0 miENE (60°)8.1 mphClear
2:55 AM75.0 °F70.3 °F85 %29.86 in10.0 miNE (50°)5.8 mph0.00 inLight Drizzle
3:03 AM75.2 °F71.6 °F89 %29.85 in10.0 miENE (60°)6.9 mphLight Drizzle
3:04 AM75.2 °F71.6 °F89 %29.85 in10.0 miENE (60°)6.9 mphLight Drizzle
3:06 AM75.2 °F71.6 °F89 %29.85 in10.0 miENE (60°)6.9 mphMostly Cloudy
3:09 AM75.2 °F71.6 °F89 %29.85 in10.0 miENE (60°)6.9 mphMostly Cloudy
3:11 AM75.2 °F69.8 °F83 %29.85 in10.0 miENE (60°)8.1 mphMostly Cloudy
3:55 AM75.0 °F69.3 °F82 %29.84 in10.0 miENE (60°)10.4 mphClear
4:50 AM75.2 °F69.8 °F83 %29.84 in10.0 miNE (40°)10.4 mphMostly Cloudy
4:54 AM75.2 °F69.8 °F83 %29.84 in10.0 miNE (40°)10.4 mphScattered Clouds
4:55 AM76.1 °F70.3 °F82 %29.84 in10.0 miNE (40°)10.4 mphScattered Clouds
5:04 AM77.0 °F71.6 °F83 %29.84 in10.0 miNE (50°)9.2 mphMostly Cloudy
5:16 AM75.2 °F69.8 °F83 %29.84 in10.0 miNE (50°)9.2 mphMostly Cloudy
5:55 AM75.4 °F69.6 °F82 %29.86 in10.0 miENE (70°)10.4 mphMostly Cloudy
6:55 AM76.3 °F70.7 °F83 %29.88 in10.0 miENE (60°)10.4 mphScattered Clouds
7:55 AM78.4 °F71.1 °F78 %29.90 in10.0 miENE (70°)8.1 mphScattered Clouds
8:55 AM79.2 °F70.3 °F74 %29.91 in10.0 miEast (80°)9.2 mphPartly Cloudy
9:55 AM81.1 °F71.8 °F73 %29.92 in10.0 miENE (60°)10.4 mphPartly Cloudy
10:17 AM80.6 °F71.6 °F74 %29.92 in10.0 miENE (70°)9.2 mphMostly Cloudy
10:32 AM80.6 °F71.6 °F74 %29.91 in10.0 miNE (50°)10.4 mphScattered Clouds
10:39 AM80.6 °F71.6 °F74 %29.91 in10.0 miEast (90°)10.4 mphMostly Cloudy
10:42 AM82.4 °F71.6 °F70 %29.91 in10.0 miNE (50°)8.1 mphScattered Clouds
10:55 AM82.4 °F71.8 °F70 %29.91 in10.0 miEast (80°)8.1 mphScattered Clouds
11:32 AM82.4 °F71.6 °F70 %29.90 in10.0 miENE (70°)10.4 mphMostly Cloudy
11:39 AM82.4 °F71.6 °F70 %29.89 in10.0 miEast (80°)10.4 mphScattered Clouds
11:55 AM82.8 °F71.4 °F68 %29.88 in10.0 miEast (80°)6.9 mphPartly Cloudy
12:55 PM83.3 °F70.9 °F66 %29.86 in10.0 miENE (70°)9.2 mphScattered Clouds
1:27 PM84.2 °F69.8 °F62 %29.85 in10.0 miNNE (30°)10.4 mph17.3 mphMostly Cloudy
1:47 PM82.4 °F69.8 °F66 %29.84 in10.0 miNNE (20°)10.4 mphMostly Cloudy
1:55 PM83.1 °F71.1 °F67 %29.84 in10.0 miNE (40°)10.4 mphScattered Clouds
2:53 PM82.4 °F71.6 °F70 %29.84 in10.0 miNorth (10°)11.5 mphMostly Cloudy
2:54 PM82.4 °F71.6 °F70 %29.84 in10.0 miNorth (10°)11.5 mphMostly Cloudy
2:55 PM82.9 °F72.0 °F69 %29.84 in10.0 miNNE (20°)10.4 mphMostly Cloudy
2:57 PM82.4 °F71.6 °F70 %29.84 in10.0 miNNE (20°)10.4 mphMostly Cloudy
3:03 PM82.4 °F71.6 °F70 %29.84 in10.0 miNNE (20°)11.5 mphMostly Cloudy
3:12 PM82.4 °F71.6 °F70 %29.84 in10.0 miNE (40°)12.7 mphMostly Cloudy
3:13 PM82.4 °F71.6 °F70 %29.84 in10.0 miNE (40°)11.5 mphMostly Cloudy
3:29 PM82.4 °F71.6 °F70 %29.84 in10.0 miNNE (20°)12.7 mphMostly Cloudy
3:38 PM82.4 °F71.6 °F70 %29.84 in10.0 miNNE (30°)11.5 mphMostly Cloudy
3:40 PM82.4 °F71.6 °F70 %29.83 in10.0 miNE (40°)10.4 mphScattered Clouds
3:55 PM81.5 °F71.4 °F71 %29.83 in10.0 miNNE (30°)11.5 mphScattered Clouds
4:50 PM82.4 °F71.6 °F70 %29.84 in10.0 miNNE (20°)13.8 mphMostly Cloudy
4:55 PM82.0 °F71.8 °F71 %29.84 in10.0 miNNE (20°)11.5 mphMostly Cloudy
4:57 PM82.4 °F71.6 °F70 %29.84 in10.0 miNNE (20°)13.8 mphMostly Cloudy
5:12 PM80.6 °F73.4 °F79 %29.84 in10.0 miNNE (30°)12.7 mphMostly Cloudy
5:27 PM78.8 °F73.4 °F83 %29.85 in10.0 miNE (40°)16.1 mphMostly Cloudy
5:55 PM78.6 °F72.7 °F82 %29.86 in10.0 miNNE (30°)15.0 mphOvercast
6:55 PM77.5 °F72.1 °F83 %29.88 in10.0 miNE (40°)13.8 mphOvercast
7:15 PM77.0 °F71.6 °F83 %29.88 in10.0 miNE (40°)15.0 mphMostly Cloudy
7:29 PM77.0 °F71.6 °F83 %29.88 in10.0 miNNE (30°)13.8 mphScattered Clouds
7:55 PM77.2 °F71.8 °F83 %29.89 in10.0 miNE (40°)15.0 mphScattered Clouds
8:49 PM77.0 °F71.6 °F83 %29.91 in10.0 miNE (40°)15.0 mphMostly Cloudy
8:55 PM77.0 °F71.6 °F83 %29.91 in10.0 miEast (90°)15.0 mphMostly Cloudy
8:57 PM77.0 °F71.6 °F83 %29.91 in10.0 miNE (40°)15.0 mphMostly Cloudy
9:06 PM77.0 °F71.6 °F83 %29.92 in10.0 miNE (40°)15.0 mphMostly Cloudy
9:08 PM77.0 °F71.6 °F83 %29.92 in10.0 miNE (40°)15.0 mphScattered Clouds
9:50 PM77.0 °F71.6 °F83 %29.93 in10.0 miNE (40°)13.8 mphMostly Cloudy
9:52 PM77.0 °F71.6 °F83 %29.93 in10.0 miNE (40°)16.1 mphScattered Clouds
9:55 PM77.5 °F71.4 °F81 %29.93 in10.0 miNE (40°)15.0 mphScattered Clouds
10:55 PM77.5 °F71.1 °F80 %29.94 in10.0 miENE (60°)12.7 mphMostly Cloudy
11:11 PM77.0 °F71.6 °F83 %29.94 in10.0 miENE (60°)13.8 mphMostly Cloudy
11:13 PM77.0 °F71.6 °F83 %29.94 in10.0 miENE (60°)13.8 mphMostly Cloudy
11:26 PM77.0 °F71.6 °F83 %29.94 in10.0 miENE (60°)13.8 mphMostly Cloudy
11:30 PM77.0 °F71.6 °F83 %29.94 in10.0 miENE (60°)12.7 mphScattered Clouds
11:55 PM77.2 °F70.9 °F81 %29.93 in10.0 miNE (50°)15.0 mphPartly Cloudy
Hourly data recorded from PGUA, located miles away from Merizo, Guam







STORIES FROM OUR PARTNERS